[[{"header":{"parameterUnit":"m.s-1","parameterCategory":1,"la1":30.2991,"la2":30.254,"lo1":-89.0895,"lo2":-89.0444,"dy":0.0017,"dx":0.0017,"nx":28,"ny":28,"refTime":"2023-08-30T21:00:00:Z","depth":0,"parameterNumber":2,"parameterNumberName":"U-component_of_WINDS"},"data":[0,0,0,0,0,0,0,0,0,0,0,0,0,0,0,0,0,0,0,0,0,0,0,0,0,0,0,0,0,0,0,0,0,0,0,0,0,0,0,0,0,0,0,0,0,0,0,0,0,0,0,0,0,0,0,0,0,0,0.5224,0.5224,0,0.5217,0.5217,0.5217,0.5192,0.5192,0.5191,0.519,0.5184,0.5184,0.5184,0,0,0,0,0,0,0,0,0,0,0,0,0,0.522,0.522,0.5224,0.5224,0.5224,0.5217,0.5217,0.5216,0.5192,0.5191,0.5191,0.519,0.5183,0.5184,0.5184,0,0,0,0,0,0,0,0,0,0,0,0,0,0.5218,0.522,0.5224,0.5211,0.521,0.5217,0.5217,0.5216,0.5192,0.5191,0.5191,0.519,0.5183,0.5184,0.5184,0.5204,0,0,0.5186,0.5186,0,0,0,0,0,0,0,0,0.5218,0.5218,0.5213,0.5212,0.5211,0.5204,0.5213,0.5212,0.5193,0.5199,0.519,0.5189,0.5191,0.5191,0.5191,0.5203,0.5203,0.5186,0.5186,0.5186,0.5187,0,0,0,0,0,0,0,0.5218,0.5219,0.5221,0.5213,0.5212,0.5206,0.5205,0.5212,0.52,0.5198,0.5197,0.5196,0.519,0.5191,0.5191,0.5203,0.5186,0.5186,0.5187,0.5187,0.5232,0.5233,0,0,0,0,0,0,0.522,0.5219,0.5222,0.5221,0.5213,0.5207,0.5206,0.5207,0.52,0.5198,0.5197,0.5195,0.5191,0.5191,0.5191,0.5214,0.5186,0.5187,0.5187,0.5231,0.5233,0.5234,0,0,0,0,0,0,0.522,0.5221,0.5222,0.522,0.5219,0.5208,0.521,0.5208,0.5208,0.5198,0.5196,0.5199,0.519,0.519,0.5201,0.5214,0.5187,0.5187,0.523,0.5232,0.5233,0.526,0,0,0,0,0,0,0.522,0.5221,0.5228,0.522,0.5219,0.5232,0.5211,0.5208,0.5209,0.5206,0.52,0.5199,0.5189,0.52,0.5202,0.5214,0.5188,0.5229,0.5231,0.5233,0.5258,0.5262,0.5266,0,0,0,0,0,0.522,0.5235,0.5228,0.5228,0.5227,0.5232,0.5232,0.5221,0.521,0.5217,0.5211,0.5199,0.5212,0.5202,0.5203,0.5215,0.5228,0.5231,0.5233,0.5257,0.5262,0.5266,0,0,0,0,0,0,0.5245,0.5234,0.5226,0.5239,0.5237,0.5228,0.5237,0.5226,0.5228,0.5225,0.5212,0.5211,0.5224,0.522,0.5209,0.5235,0.5218,0.5221,0.5236,0.5241,0.5245,0.5246,0.5188,0,0,0,0,0,0.5252,0.5256,0.5247,0.5259,0.5259,0.5248,0.525,0.5241,0.5239,0.5238,0.5232,0.5231,0.5235,0.5238,0.5241,0.5258,0.5257,0.5267,0.5271,0.5274,0.5277,0.5287,0.5292,0.524,0.524,0.524,0,0,0.5266,0.5261,0.5264,0.5264,0.5261,0.5267,0.5247,0.5254,0.5258,0.5239,0.5249,0.5245,0.5243,0.5257,0.5263,0.5255,0.5291,0.5277,0.5279,0.528,0.529,0.5295,0.5299,0.5242,0.5242,0.5241,0,0,0.5295,0.5291,0.5302,0.53,0.5297,0.529,0.5292,0.5286,0.5283,0.5292,0.5279,0.5284,0.529,0.529,0.529,0.5321,0.531,0.5322,0.5343,0.5353,0.5357,0.5361,0.5373,0.5377,0.5325,0.5325,0.5325,0,0.5314,0.5321,0.5309,0.5317,0.5318,0.53,0.5312,0.5311,0.5308,0.531,0.53,0.5309,0.5306,0.5321,0.5329,0.5329,0.5333,0.5323,0.5358,0.5361,0.5364,0.5376,0.538,0.5326,0.5326,0.5326,0.5326,0,0.5345,0.5351,0.536,0.5358,0.536,0.537,0.5359,0.5363,0.5355,0.5349,0.5361,0.5357,0.5359,0.5362,0.5354,0.5376,0.5371,0.536,0.5343,0.5371,0.5382,0.5386,0.5329,0.5328,0.5328,0.5327,0,0,0.5389,0.5381,0.5385,0.5385,0.538,0.5385,0.5394,0.5396,0.54,0.54,0.5408,0.5415,0.5405,0.5406,0.5397,0.5406,0.5433,0.5394,0.5394,0.5402,0.5459,0.5468,0.5473,0.5426,0.5426,0.5427,0.546,0,0.5417,0.5433,0.5422,0.544,0.5445,0.543,0.5438,0.5437,0.5433,0.5438,0.5433,0.5438,0.5424,0.5424,0.5433,0.5428,0.5444,0.5425,0.5434,0.5435,0.5436,0.5479,0.5488,0.5519,0.5464,0.5464,0.5465,0,0.5452,0.5454,0.5472,0.5468,0.547,0.5477,0.548,0.5484,0.5483,0.5479,0.5481,0.5471,0.5481,0.5465,0.5479,0.5466,0.547,0.5468,0.5469,0.547,0.5452,0.5481,0.5528,0.5533,0.5471,0.547,0.547,0,0.5484,0.549,0.5502,0.5503,0.5498,0.5504,0.5502,0.55,0.5503,0.5505,0.5507,0.551,0.5512,0.5516,0.5507,0.5496,0.5524,0.5506,0.5522,0.5522,0.5528,0.5528,0.5577,0.5529,0.5529,0.5529,0.5529,0,0.5517,0.5529,0.5517,0.5524,0.5538,0.5526,0.554,0.5537,0.5535,0.5543,0.5529,0.5537,0.5525,0.5532,0.5525,0.5539,0.554,0.5538,0.5536,0.5539,0.554,0.5542,0.554,0.553,0.553,0.553,0.553,0,0.5555,0.5547,0.5559,0.5554,0.5553,0.5563,0.5559,0.5566,0.5561,0.5571,0.5572,0.5564,0.5572,0.5564,0.557,0.5566,0.5585,0.558,0.5585,0.5584,0.5601,0.56,0.5653,0.566,0.5607,0.5608,0.5608,0,0.5577,0.5586,0.5582,0.5586,0.5585,0.5591,0.5594,0.5584,0.5587,0.5588,0.5595,0.5601,0.5605,0.5618,0.5613,0.5619,0.5614,0.5632,0.5615,0.5618,0.5616,0.5615,0.5617,0.5636,0.5637,0.5637,0.5638,0,0.5618,0.5614,0.5618,0.5621,0.5625,0.5628,0.5629,0.5633,0.5622,0.5627,0.5634,0.5638,0.5645,0.5652,0.5656,0.5655,0.5645,0.5643,0.5647,0.5651,0.5654,0.5654,0.5596,0.5642,0.5642,0.5641,0.5641,0.5641,0.5649,0.5656,0.5655,0.5661,0.5661,0.5663,0.567,0.5666,0.5672,0.5676,0.567,0.5679,0.568,0.5684,0.5685,0.5693,0.5685,0.5691,0.5692,0.5694,0.5697,0.5653,0.5693,0.5693,0.5693,0.5693,0.5693,0,0.5689,0.5688,0.5694,0.5696,0.5701,0.5691,0.5693,0.5698,0.5706,0.5707,0.5711,0.5721,0.5727,0.5724,0.573,0.5737,0.5733,0.5739,0.5739,0.5739,0.5703,0.5699,0.5742,0.5742,0.5742,0.5742,0.5742,0.5742,0.5711,0.5724,0.572,0.5734,0.5732,0.5741,0.5743,0.5745,0.5746,0.5757,0.5762,0.576,0.576,0.5766,0.5772,0.5771,0.5774,0.5782,0.578,0.5746,0.5741,0.5737,0.5733,0.5783,0.5783,0.5815,0.5816,0.5816]},{"header":{"parameterUnit":"m.s-1","parameterCategory":1,"la1":30.2991,"la2":30.254,"lo1":-89.0895,"lo2":-89.0444,"dy":0.0017,"dx":0.0017,"nx":28,"ny":28,"refTime":"2023-08-30T21:00:00:Z","depth":0,"parameterNumber":3,"parameterNumberName":"V-component_of_WINDS"},"data":[0,0,0,0,0,0,0,0,0,0,0,0,0,0,0,0,0,0,0,0,0,0,0,0,0,0,0,0,0,0,0,0,0,0,0,0,0,0,0,0,0,0,0,0,0,0,0,0,0,0,0,0,0,0,0,0,0,0,-1.2066,-1.2065,0,-1.2,-1.1999,-1.1999,-1.1978,-1.1979,-1.1979,-1.1979,-1.1907,-1.1905,-1.1903,0,0,0,0,0,0,0,0,0,0,0,0,0,-1.2168,-1.2166,-1.2066,-1.2065,-1.2064,-1.2,-1.1999,-1.1998,-1.1978,-1.1979,-1.1979,-1.1979,-1.1908,-1.1906,-1.1903,0,0,0,0,0,0,0,0,0,0,0,0,0,-1.2115,-1.2166,-1.2066,-1.2047,-1.2044,-1.2,-1.1999,-1.1998,-1.1978,-1.1979,-1.1979,-1.1979,-1.1909,-1.1906,-1.1903,-1.1872,0,0,-1.1892,-1.1891,0,0,0,0,0,0,0,0,-1.2118,-1.2111,-1.205,-1.2048,-1.2045,-1.1998,-1.2009,-1.1956,-1.1978,-1.2003,-1.1979,-1.198,-1.1937,-1.1931,-1.1918,-1.1869,-1.1866,-1.1892,-1.189,-1.1889,-1.1888,0,0,0,0,0,0,0,-1.2122,-1.2114,-1.204,-1.2049,-1.2046,-1.2039,-1.2032,-1.1999,-1.1968,-1.2001,-1.1999,-1.1992,-1.1935,-1.1921,-1.1916,-1.1865,-1.1892,-1.1889,-1.1887,-1.1886,-1.1784,-1.1784,0,0,0,0,0,0,-1.213,-1.2117,-1.2042,-1.2038,-1.2084,-1.2037,-1.2029,-1.2012,-1.1968,-1.1962,-1.1992,-1.1991,-1.1926,-1.192,-1.1913,-1.1873,-1.1889,-1.1886,-1.1884,-1.1785,-1.1784,-1.1783,0,0,0,0,0,0,-1.2132,-1.2123,-1.2044,-1.2077,-1.2067,-1.2035,-1.2016,-1.2011,-1.1996,-1.1961,-1.1955,-1.1983,-1.1927,-1.1918,-1.1882,-1.187,-1.1884,-1.1881,-1.1786,-1.1785,-1.1784,-1.1793,0,0,0,0,0,0,-1.2135,-1.2124,-1.2114,-1.2077,-1.2065,-1.2016,-1.2015,-1.2009,-1.1991,-1.199,-1.1951,-1.1945,-1.1926,-1.1887,-1.1879,-1.1866,-1.1878,-1.1787,-1.1785,-1.1784,-1.1794,-1.1793,-1.1792,0,0,0,0,0,-1.2139,-1.2119,-1.2113,-1.2104,-1.2052,-1.2016,-1.2009,-1.1988,-1.1991,-1.1979,-1.1956,-1.1947,-1.1873,-1.1884,-1.1874,-1.186,-1.1787,-1.1786,-1.1784,-1.1794,-1.1793,-1.1792,0,0,0,0,0,0,-1.2154,-1.2114,-1.2107,-1.2075,-1.2049,-1.2013,-1.1997,-1.1988,-1.196,-1.196,-1.1934,-1.1925,-1.1891,-1.1872,-1.1885,-1.1827,-1.183,-1.1826,-1.1841,-1.1839,-1.1838,-1.1843,-1.1876,0,0,0,0,0,-1.2154,-1.213,-1.2095,-1.207,-1.2057,-1.203,-1.2013,-1.2,-1.1971,-1.196,-1.1934,-1.1905,-1.1875,-1.1856,-1.1827,-1.1791,-1.1781,-1.1776,-1.1775,-1.1775,-1.1772,-1.1748,-1.1745,-1.1778,-1.1778,-1.1778,0,0,-1.2153,-1.2128,-1.2114,-1.2072,-1.2051,-1.2024,-1.202,-1.1993,-1.1973,-1.1955,-1.192,-1.19,-1.1865,-1.1829,-1.1812,-1.1812,-1.176,-1.1773,-1.1772,-1.1769,-1.1747,-1.1743,-1.1741,-1.1777,-1.1777,-1.1778,0,0,-1.2137,-1.2117,-1.2093,-1.2071,-1.2038,-1.202,-1.2014,-1.1978,-1.1964,-1.1929,-1.1914,-1.1888,-1.1838,-1.1814,-1.1795,-1.1768,-1.1757,-1.1759,-1.1753,-1.1731,-1.1728,-1.1726,-1.1714,-1.171,-1.1756,-1.1756,-1.1756,0,-1.214,-1.2101,-1.2081,-1.2054,-1.2035,-1.2019,-1.1993,-1.1972,-1.1931,-1.1917,-1.1919,-1.1854,-1.183,-1.1786,-1.178,-1.1765,-1.1756,-1.1763,-1.173,-1.1728,-1.1725,-1.1714,-1.1709,-1.1756,-1.1756,-1.1756,-1.1756,0,-1.2105,-1.2078,-1.2062,-1.2024,-1.2003,-1.1977,-1.195,-1.1931,-1.1919,-1.1899,-1.1862,-1.1832,-1.1796,-1.1784,-1.1772,-1.1738,-1.1739,-1.1736,-1.1738,-1.1723,-1.1711,-1.1707,-1.1757,-1.1757,-1.1756,-1.1756,0,0,-1.2098,-1.2048,-1.2042,-1.2024,-1.1985,-1.1963,-1.1935,-1.19,-1.1883,-1.1855,-1.1829,-1.1786,-1.1782,-1.176,-1.1744,-1.1725,-1.1703,-1.1724,-1.1722,-1.1719,-1.1661,-1.1663,-1.1658,-1.1696,-1.1695,-1.1695,-1.1663,0,-1.2077,-1.2028,-1.2008,-1.1966,-1.194,-1.1923,-1.1897,-1.187,-1.185,-1.1823,-1.1801,-1.177,-1.1768,-1.1755,-1.1735,-1.171,-1.1691,-1.1712,-1.1669,-1.1668,-1.1678,-1.1653,-1.1655,-1.1627,-1.1659,-1.1658,-1.1658,0,-1.2046,-1.2018,-1.1974,-1.1937,-1.1925,-1.1903,-1.1868,-1.1844,-1.1811,-1.1798,-1.1773,-1.1758,-1.1725,-1.1729,-1.1682,-1.1697,-1.1678,-1.1663,-1.1661,-1.1655,-1.1661,-1.1645,-1.1618,-1.1613,-1.1651,-1.1651,-1.1652,0,-1.2044,-1.1995,-1.1962,-1.1946,-1.1903,-1.1887,-1.1868,-1.1836,-1.1815,-1.1784,-1.177,-1.1735,-1.1716,-1.1688,-1.1663,-1.1669,-1.1617,-1.162,-1.1603,-1.1603,-1.1592,-1.1593,-1.156,-1.1582,-1.1582,-1.1582,-1.1583,0,-1.2021,-1.1995,-1.196,-1.194,-1.1908,-1.1884,-1.1854,-1.1833,-1.1804,-1.1777,-1.176,-1.1735,-1.1704,-1.1674,-1.1655,-1.1617,-1.1609,-1.1595,-1.159,-1.1596,-1.1598,-1.1583,-1.1583,-1.1581,-1.1582,-1.1582,-1.1582,0,-1.2014,-1.1989,-1.1952,-1.1913,-1.1903,-1.1881,-1.1847,-1.1825,-1.1804,-1.1771,-1.1761,-1.1728,-1.1692,-1.1664,-1.1617,-1.1603,-1.1563,-1.1558,-1.1574,-1.1571,-1.1555,-1.1556,-1.1511,-1.1502,-1.1531,-1.1531,-1.1531,0,-1.2001,-1.198,-1.1939,-1.192,-1.1901,-1.1872,-1.1851,-1.1825,-1.1804,-1.1764,-1.1746,-1.1709,-1.1678,-1.162,-1.159,-1.1554,-1.1547,-1.1533,-1.1541,-1.1547,-1.1544,-1.1545,-1.1542,-1.1532,-1.1532,-1.1532,-1.1532,0,-1.198,-1.1968,-1.194,-1.1906,-1.1881,-1.1853,-1.1824,-1.1809,-1.1778,-1.1754,-1.1718,-1.1694,-1.1645,-1.1607,-1.1567,-1.1545,-1.1532,-1.1529,-1.1523,-1.1529,-1.1538,-1.1531,-1.157,-1.153,-1.153,-1.1531,-1.1531,-1.1531,-1.1968,-1.1948,-1.1915,-1.1883,-1.1858,-1.1831,-1.1809,-1.1784,-1.1754,-1.1713,-1.1699,-1.1661,-1.1626,-1.157,-1.1547,-1.1515,-1.1515,-1.1506,-1.1504,-1.1502,-1.1501,-1.1544,-1.1508,-1.1508,-1.1508,-1.1508,-1.1508,0,-1.1945,-1.1923,-1.1893,-1.1853,-1.1827,-1.1819,-1.1785,-1.1763,-1.173,-1.1699,-1.1669,-1.1625,-1.1588,-1.1554,-1.1515,-1.1495,-1.1488,-1.1486,-1.1486,-1.1481,-1.1505,-1.1514,-1.1492,-1.1492,-1.1492,-1.1492,-1.1492,-1.1492,-1.193,-1.1895,-1.1879,-1.183,-1.1807,-1.177,-1.1752,-1.1726,-1.17,-1.1653,-1.1622,-1.1601,-1.1568,-1.1526,-1.149,-1.1481,-1.1466,-1.1465,-1.1454,-1.1477,-1.1479,-1.1481,-1.1489,-1.1462,-1.1462,-1.1432,-1.1432,-1.1431]}]]